• în România
  • Lista ţărilor
  • Pe 7 zile
  • Temperatura apei
  • Hartă satelitară
  • Meteo pe hartă
  • Widget-uri
  • user-avatar
    Intrare

    Meteo pe oră la Velika Gorica

    Astăzi, 21 Octombrie, Sâmbătă

    Timp Temperatura Precipitaţii Vânt Presiune Umiditate
    00:00 +12°C° 0 mm 1 m/s 754 mmHg 90%
    01:00 +12°C° 0 mm 2 m/s 754 mmHg 88%
    02:00 +12°C° 0 mm 2 m/s 754 mmHg 89%
    03:00 +11°C° 0 mm 1 m/s 753 mmHg 90%
    04:00 +11°C° 0 mm 1 m/s 753 mmHg 91%
    05:00 +11°C° 0 mm 1 m/s 753 mmHg 90%
    06:00 +11°C° 0 mm 1 m/s 754 mmHg 89%
    07:00 +11°C° 0 mm 1 m/s 754 mmHg 88%
    08:00 +14°C° 0 mm 1 m/s 754 mmHg 78%
    09:00 +16°C° 0 mm 1 m/s 754 mmHg 68%
    10:00 +19°C° 0 mm 1 m/s 754 mmHg 59%
    11:00 +19°C° 0 mm 2 m/s 753 mmHg 55%
    12:00 +21°C° 0 mm 2 m/s 753 mmHg 51%
    13:00 +23°C° 0 mm 2 m/s 753 mmHg 47%
    14:00 +22°C° 0 mm 1 m/s 753 mmHg 52%
    15:00 +21°C° 0 mm 1 m/s 752 mmHg 56%
    16:00 +21°C° 0 mm 1 m/s 752 mmHg 61%
    17:00 +19°C° 0 mm 1 m/s 752 mmHg 66%
    18:00 +18°C° 0 mm 1 m/s 752 mmHg 70%
    19:00 +15°C° 0 mm 1 m/s 752 mmHg 75%
    20:00 +15°C° 0 mm 1 m/s 752 mmHg 78%
    21:00 +14°C° 0 mm 1 m/s 752 mmHg 81%
    22:00 +13°C° 0 mm 1 m/s 752 mmHg 85%
    23:00 +13°C° 0 mm 1 m/s 752 mmHg 87%

    Mâine, 22 Octombrie, Duminică

    Timp Temperatura Precipitaţii Vânt Presiune Umiditate
    00:00 +13°C° 0 mm 1 m/s 752 mmHg 89%
    01:00 +12°C° 0 mm 1 m/s 752 mmHg 91%
    02:00 +12°C° 0 mm 1 m/s 752 mmHg 91%
    03:00 +12°C° 0 mm 1 m/s 751 mmHg 92%
    04:00 +12°C° 0 mm 1 m/s 751 mmHg 93%
    05:00 +12°C° 0 mm 1 m/s 751 mmHg 92%
    06:00 +12°C° 0 mm 1 m/s 751 mmHg 92%
    07:00 +12°C° 0 mm 1 m/s 751 mmHg 91%
    08:00 +14°C° 0 mm 1 m/s 750 mmHg 84%
    09:00 +16°C° 0 mm 1 m/s 750 mmHg 76%
    10:00 +17°C° 0 mm 0 m/s 750 mmHg 68%
    11:00 +19°C° 0,6 mm 1 m/s 750 mmHg 72%
    12:00 +19°C° 0,6 mm 1 m/s 749 mmHg 76%
    13:00 +18°C° 0,6 mm 1 m/s 749 mmHg 80%
    14:00 +16°C° 2,6 mm 2 m/s 749 mmHg 84%
    15:00 +16°C° 2,6 mm 2 m/s 748 mmHg 88%
    16:00 +14°C° 2,6 mm 3 m/s 748 mmHg 92%
    17:00 +13°C° 1,4 mm 3 m/s 748 mmHg 91%
    18:00 +12°C° 1,4 mm 4 m/s 748 mmHg 91%
    19:00 +11°C° 1,4 mm 4 m/s 749 mmHg 90%
    20:00 +11°C° 0,4 mm 4 m/s 749 mmHg 90%
    21:00 +10°C° 0,4 mm 4 m/s 749 mmHg 90%
    22:00 +10°C° 0,4 mm 3 m/s 749 mmHg 89%
    23:00 +10°C° 0,2 mm 3 m/s 748 mmHg 88%

    Poimâine, 23 Octombrie, Luni

    Timp Temperatura Precipitaţii Vânt Presiune Umiditate
    00:00 +10°C° 0,2 mm 3 m/s 748 mmHg 87%
    01:00 +10°C° 0,2 mm 3 m/s 748 mmHg 86%
    02:00 +10°C° 0,2 mm 3 m/s 748 mmHg 85%
    03:00 +9°C° 0,2 mm 2 m/s 748 mmHg 85%
    04:00 +9°C° 0,2 mm 2 m/s 748 mmHg 84%
    05:00 +9°C° 0,1 mm 2 m/s 748 mmHg 84%
    06:00 +9°C° 0,1 mm 2 m/s 748 mmHg 84%
    07:00 +9°C° 0,1 mm 2 m/s 748 mmHg 84%
    08:00 +9°C° 0,1 mm 2 m/s 748 mmHg 81%
    09:00 +10°C° 0,1 mm 3 m/s 748 mmHg 79%
    10:00 +10°C° 0,1 mm 3 m/s 748 mmHg 77%
    11:00 +11°C° 0,2 mm 3 m/s 748 mmHg 73%
    12:00 +12°C° 0,2 mm 4 m/s 748 mmHg 69%
    13:00 +12°C° 0,2 mm 4 m/s 748 mmHg 66%
    14:00 +12°C° 0,3 mm 4 m/s 749 mmHg 69%
    15:00 +11°C° 0,3 mm 4 m/s 749 mmHg 72%
    16:00 +11°C° 0,3 mm 3 m/s 749 mmHg 75%
    17:00 +10°C° 0,3 mm 3 m/s 749 mmHg 76%
    18:00 +10°C° 0,3 mm 3 m/s 749 mmHg 76%
    19:00 +9°C° 0,3 mm 3 m/s 750 mmHg 77%
    20:00 +9°C° 0,3 mm 3 m/s 750 mmHg 77%
    21:00 +9°C° 0,3 mm 3 m/s 750 mmHg 77%
    22:00 +9°C° 0,3 mm 3 m/s 750 mmHg 77%
    23:00 +9°C° 0,2 mm 3 m/s 750 mmHg 78%

    24 Octombrie, Marţi

    Timp Temperatura Precipitaţii Vânt Presiune Umiditate
    00:00 +9°C° 0,2 mm 3 m/s 751 mmHg 78%
    01:00 +9°C° 0,2 mm 3 m/s 751 mmHg 78%
    02:00 +9°C° 0 mm 3 m/s 751 mmHg 78%
    03:00 +9°C° 0 mm 3 m/s 751 mmHg 78%
    04:00 +9°C° 0 mm 3 m/s 751 mmHg 78%
    05:00 +9°C° 0 mm 3 m/s 751 mmHg 78%
    06:00 +9°C° 0 mm 3 m/s 751 mmHg 79%
    07:00 +9°C° 0 mm 3 m/s 752 mmHg 79%
    08:00 +10°C° 0 mm 4 m/s 752 mmHg 72%
    09:00 +12°C° 0 mm 5 m/s 752 mmHg 66%
    10:00 +12°C° 0 mm 7 m/s 752 mmHg 59%
    11:00 +12°C° 0 mm 7 m/s 752 mmHg 59%
    12:00 +12°C° 0 mm 7 m/s 752 mmHg 58%
    13:00 +14°C° 0 mm 7 m/s 752 mmHg 58%
    14:00 +13°C° 0 mm 6 m/s 753 mmHg 59%
    15:00 +13°C° 0 mm 6 m/s 753 mmHg 61%
    16:00 +13°C° 0 mm 6 m/s 753 mmHg 62%
    17:00 +11°C° 0 mm 6 m/s 754 mmHg 64%
    18:00 +11°C° 0 mm 6 m/s 755 mmHg 65%
    19:00 +10°C° 0 mm 6 m/s 755 mmHg 67%
    20:00 +10°C° 0 mm 6 m/s 756 mmHg 69%
    21:00 +9°C° 0 mm 5 m/s 756 mmHg 70%
    22:00 +9°C° 0 mm 5 m/s 757 mmHg 72%
    23:00 +8°C° 0 mm 5 m/s 757 mmHg 73%

    25 Octombrie, Miercuri

    Timp Temperatura Precipitaţii Vânt Presiune Umiditate
    00:00 +8°C° 0 mm 4 m/s 757 mmHg 75%
    01:00 +7°C° 0 mm 4 m/s 757 mmHg 76%
    02:00 +7°C° 0 mm 4 m/s 757 mmHg 77%
    03:00 +7°C° 0 mm 4 m/s 758 mmHg 78%
    04:00 +7°C° 0 mm 3 m/s 758 mmHg 79%
    05:00 +7°C° 0 mm 3 m/s 758 mmHg 79%
    06:00 +7°C° 0 mm 3 m/s 758 mmHg 80%
    07:00 +7°C° 0 mm 2 m/s 759 mmHg 81%
    08:00 +8°C° 0 mm 3 m/s 759 mmHg 73%
    09:00 +10°C° 0 mm 4 m/s 759 mmHg 65%
    10:00 +12°C° 0 mm 4 m/s 759 mmHg 57%
    11:00 +13°C° 0 mm 4 m/s 759 mmHg 53%
    12:00 +13°C° 0 mm 5 m/s 758 mmHg 50%
    13:00 +14°C° 0 mm 5 m/s 758 mmHg 46%
    14:00 +13°C° 0 mm 4 m/s 758 mmHg 48%
    15:00 +13°C° 0 mm 4 m/s 758 mmHg 50%
    16:00 +12°C° 0 mm 3 m/s 758 mmHg 52%
    17:00 +10°C° 0 mm 3 m/s 759 mmHg 54%
    18:00 +9°C° 0 mm 3 m/s 760 mmHg 57%
    19:00 +7°C° 0 mm 3 m/s 760 mmHg 59%
    20:00 +7°C° 0 mm 2 m/s 761 mmHg 60%
    21:00 +6°C° 0 mm 2 m/s 761 mmHg 62%
    22:00 +6°C° 0 mm 2 m/s 761 mmHg 64%
    23:00 +5°C° 0 mm 2 m/s 762 mmHg 65%

    26 Octombrie, Joi

    Timp Temperatura Precipitaţii Vânt Presiune Umiditate
    00:00 +5°C° 0 mm 2 m/s 762 mmHg 67%
    01:00 +4°C° 0 mm 2 m/s 762 mmHg 69%
    02:00 +4°C° 0 mm 2 m/s 762 mmHg 70%
    03:00 +3°C° 0 mm 2 m/s 762 mmHg 71%
    04:00 +3°C° 0 mm 2 m/s 763 mmHg 73%
    05:00 +3°C° 0 mm 2 m/s 763 mmHg 73%
    06:00 +4°C° 0 mm 1 m/s 763 mmHg 73%
    07:00 +3°C° 0 mm 1 m/s 763 mmHg 74%
    08:00 +4°C° 0 mm 2 m/s 763 mmHg 65%
    09:00 +7°C° 0 mm 2 m/s 763 mmHg 57%
    10:00 +9°C° 0 mm 2 m/s 763 mmHg 49%
    11:00 +10°C° 0 mm 2 m/s 763 mmHg 46%
    12:00 +12°C° 0 mm 2 m/s 763 mmHg 43%
    13:00 +13°C° 0 mm 2 m/s 762 mmHg 40%
    14:00 +12°C° 0 mm 2 m/s 762 mmHg 44%
    15:00 +11°C° 0 mm 1 m/s 762 mmHg 48%
    16:00 +11°C° 0 mm 1 m/s 762 mmHg 52%
    17:00 +9°C° 0 mm 1 m/s 763 mmHg 56%
    18:00 +8°C° 0 mm 1 m/s 763 mmHg 59%
    19:00 +6°C° 0 mm 1 m/s 764 mmHg 62%
    20:00 +6°C° 0 mm 1 m/s 764 mmHg 63%
    21:00 +5°C° 0 mm 1 m/s 764 mmHg 65%
    22:00 +5°C° 0 mm 1 m/s 764 mmHg 66%
    23:00 +5°C° 0 mm 1 m/s 764 mmHg 66%
    Arată mai mult